Regional Weather Roundup
Issued by NWS

Home | Current Version | Previous Version | Text Only | Print | Product List | Glossary On
Versions: 1 2 3 4 5 6 7 8 9 10 11 12 13 14 15 16 17 18 19 20 21 22 23 24 25 26 27 28 29 30 31 32 33 34 35 36 37 38 39 40 41 42 43 44 45 46 47 48 49 50
000
ASUS45 KSLC 291010
RWRUT

UTAH REGIONAL WEATHER ROUNDUP
NATIONAL WEATHER SERVICE SALT LAKE CITY UT
400 AM MDT TUE JUL 29 2014

UTZ001>011-023>025-291100-

NORTHERN UTAH

CITY           SKY/WX    TMP DP  RH WIND       PRES   REMARKS
HILL AFB       CLOUDY    66  58  77 E8        30.21F
LOGAN          LGT RAIN  64  62  93 NW3       30.21F
OGDEN          CLOUDY    68  61  78 SE3       30.19F
PROVO AIRPORT  CLOUDY    66  61  82 E5        30.22S
SALT LAKE CITY CLOUDY    68  62  81 N5        30.19F
VERNAL         CLOUDY    63  60  90 CALM      30.27F
WENDOVER       CLOUDY    70  61  73 NE6       30.20S
HEBER CITY     CLOUDY    61  59  94 CALM      30.27S
WEST JORDAN    CLOUDY    68  68 100 CALM      30.22S

$$

UTZ012>022-026-027-291100-

SOUTHERN UTAH

CITY           SKY/WX    TMP DP  RH WIND       PRES   REMARKS
BRYCE CANYON   CLOUDY    52  50  93 W7        30.42S
CEDAR CITY     MOCLDY    65  53  65 SE7       30.26F
MILFORD        PTCLDY    69  53  56 S10       30.21S
MOAB/CYNLANDS  CLEAR     65  62  90 CALM      30.21F
PRICE          MOCLDY    62  57  83 E5        30.31F
ST GEORGE      CLOUDY    75  55  50 SE7       30.11S
KANAB            N/A     61  57  88 N3        30.29S

$$

REGIONAL REPORTS     COLORADO/ARIZONA

CITY           SKY/WX    TMP DP  RH WIND       PRES   REMARKS
CRAIG, CO      CLOUDY    53  53 100 S3        30.32F
GRAND JUNCTION LGT RAIN  62  62 100 E6        30.28F
RIFLE          CLOUDY    63  58  83 W12       30.32R
MONTROSE       LGT RAIN  62  59  90 CALM      30.37S
CORTEZ         CLOUDY    62  60  93 N3        30.33F
PAGE, AZ       CLEAR     74  49  41 S3        30.19S
GRAND CANYON   CLEAR     52  50  93 CALM      30.37F
KINGMAN        CLEAR     71  58  63 SE9       30.13S
FLAGSTAFF      CLEAR     53  50  89 CALM      30.40F

$$

REGIONAL REPORTS    NEVADA/IDAHO/WYOMING

CITY           SKY/WX    TMP DP  RH WIND       PRES   REMARKS
LAS VEGAS, NV  PTCLDY    81  63  54 S9        30.00S
ELY            CLOUDY    57  54  89 S9        30.30F
ELKO           CLOUDY    66  54  65 NE8       30.24R
POCATELLO, ID  CLOUDY    63  61  93 E3        30.21S
BURLEY         MOCLDY    66  57  72 NE7       30.16S
EVANSTON, WY   CLOUDY    57  55  93 W6        30.36F
ROCK SPRINGS   CLOUDY    66  45  46 W10       30.32S

$$


USA.gov is the U.S. government's official web portal to all federal, state and local government web resources and services.